星链-3312 (STARLINK-3312 )

导读 | 豆包AI

STARLINK-3312是美国SpaceX星链星座中的一颗互联网通信卫星,于2022年1月6日发射升空。作为星链计划的组成部分,它运行在近地轨道,旨在为全球提供低成本、高性能的宽带互联网接入服务,目前卫星状态稳定,承担着太空网络覆盖的通信任务,助力星链巨型星座实现全球互联的目标。

基本信息
目录编号:
50850
目录名称:
STARLINK-3312
国际标识:
2022-001AZ
轨道中心:
EARTH
卫星名称:
星链-3312
卫星全名:
星链-3312 (STARLINK-3312 )
卫星状态:
在轨 (已飞行1576 天)
发射日期:
2022-01-06 UTC
国别 :
美国 (US)
星等 :
--
轨道信息
数据来源 国际轨道数据 AOE轨道数据
星历时间 2026-04-30T22:30:36+0800
10小时前
查看轨道信息
2026-04-30T08:00:00+0800
1天前
查看轨道信息
半长轴 6917.875km 6917.854km
偏心率 0.00013 0.0001261
轨道倾角 53.218° 53.219°
近地点辐角 119.525° 106.776°
升交点赤经 266.066° 268.782°
平近点角 240.588° 207.580°
近地点 538.838km 538.844km
远地点 540.638km 540.59km
周期 95.437分钟 95.437分钟
每日圈数 15.088418 15.088488
详细信息
固有亮度:
5
最大亮度:
2.5
卫星平台:
Starlink v1.5
覆盖范围:
全球
运营商:
太空探索技术公司
运营商所在国:
美国
制造商(研发单位):
太空探索技术公司
制造商所在国:
美国
使用方式:
暂无
卫星简介
星链(Starlink)计划是由太空探索技术公司(SpaceX)提出的一个巨型低轨卫星互联网星座项目,计划在2019年至2024年间在太空搭建由约1.2万颗卫星组成的“星链”网络,其中1584颗将部署在地球上空550千米处的近地轨道,并从2020年开始工作。该卫星仍在工作。
2D轨道图
3D轨道图
轨道高度分析图
轨道倾角分析图
轨道综合分析图
查看轨道综合分析图